EN

Hourly Weather Combita

Today, 28 November, Saturday

Time Temperature Precipitation Wind Pressure Humidity
00:00 +10°C° 1.5 mm 0 mps 539 mmHg 97%
01:00 +10°C° 0 mm 1 mps 539 mmHg 96%
02:00 +10°C° 0.1 mm 1 mps 539 mmHg 96%
03:00 +10°C° 0.1 mm 1 mps 538 mmHg 95%
04:00 +10°C° 0.1 mm 1 mps 538 mmHg 95%
05:00 +9°C° 0 mm 0 mps 539 mmHg 93%
06:00 +9°C° 0 mm 0 mps 539 mmHg 92%
07:00 +10°C° 0 mm 0 mps 540 mmHg 91%
08:00 +12°C° 0 mm 0 mps 541 mmHg 81%
09:00 +15°C° 0 mm 0 mps 543 mmHg 71%
10:00 +19°C° 0 mm 1 mps 545 mmHg 61%
11:00 +19°C° 0.5 mm 1 mps 544 mmHg 67%
12:00 +18°C° 0.5 mm 1 mps 542 mmHg 72%
13:00 +18°C° 0.5 mm 1 mps 541 mmHg 78%
14:00 +16°C° 1.4 mm 1 mps 541 mmHg 82%
15:00 +15°C° 1.4 mm 1 mps 540 mmHg 86%
16:00 +15°C° 1.4 mm 1 mps 540 mmHg 89%
17:00 +14°C° 1.3 mm 1 mps 540 mmHg 92%
18:00 +13°C° 1.3 mm 1 mps 540 mmHg 94%
19:00 +11°C° 1.3 mm 0 mps 540 mmHg 96%
20:00 +11°C° 1.8 mm 0 mps 540 mmHg 97%
21:00 +11°C° 1.8 mm 0 mps 540 mmHg 97%
22:00 +10°C° 1.8 mm 0 mps 541 mmHg 97%
23:00 +10°C° 0.4 mm 0 mps 540 mmHg 97%

Tomorrow, 29 November, Sunday

Time Temperature Precipitation Wind Pressure Humidity
00:00 +10°C° 0.4 mm 0 mps 540 mmHg 97%
01:00 +10°C° 0.4 mm 0 mps 539 mmHg 97%
02:00 +9°C° 0 mm 0 mps 539 mmHg 96%
03:00 +9°C° 0 mm 0 mps 539 mmHg 96%
04:00 +9°C° 0 mm 0 mps 538 mmHg 96%
05:00 +10°C° 0.1 mm 1 mps 539 mmHg 96%
06:00 +11°C° 0.1 mm 1 mps 540 mmHg 95%
07:00 +11°C° 0.1 mm 1 mps 540 mmHg 94%
08:00 +12°C° 0.2 mm 1 mps 541 mmHg 90%
09:00 +14°C° 0.2 mm 1 mps 542 mmHg 85%
10:00 +15°C° 0.2 mm 1 mps 543 mmHg 81%
11:00 +15°C° 0.6 mm 1 mps 542 mmHg 82%
12:00 +15°C° 0.6 mm 1 mps 542 mmHg 84%
13:00 +15°C° 0.6 mm 1 mps 541 mmHg 85%
14:00 +15°C° 0.7 mm 1 mps 541 mmHg 86%
15:00 +14°C° 0.7 mm 1 mps 540 mmHg 87%
16:00 +14°C° 0.7 mm 1 mps 540 mmHg 88%
17:00 +13°C° 0.4 mm 1 mps 540 mmHg 90%
18:00 +12°C° 0.4 mm 1 mps 539 mmHg 93%
19:00 +10°C° 0.4 mm 1 mps 539 mmHg 96%
20:00 +10°C° 0.1 mm 1 mps 539 mmHg 96%
21:00 +9°C° 0.1 mm 1 mps 539 mmHg 96%
22:00 +9°C° 0.1 mm 1 mps 539 mmHg 96%
23:00 +9°C° 0 mm 1 mps 539 mmHg 96%

Day after tomorrow, 30 November, Monday

Time Temperature Precipitation Wind Pressure Humidity
00:00 +9°C° 0 mm 1 mps 539 mmHg 96%
01:00 +8°C° 0 mm 1 mps 538 mmHg 96%
02:00 +8°C° 0 mm 1 mps 538 mmHg 95%
03:00 +8°C° 0 mm 1 mps 538 mmHg 95%
04:00 +8°C° 0 mm 1 mps 538 mmHg 95%
05:00 +9°C° 0 mm 1 mps 538 mmHg 94%
06:00 +9°C° 0 mm 1 mps 539 mmHg 92%
07:00 +10°C° 0 mm 1 mps 540 mmHg 91%
08:00 +12°C° 0 mm 1 mps 541 mmHg 83%
09:00 +15°C° 0 mm 1 mps 542 mmHg 74%
10:00 +18°C° 0 mm 1 mps 544 mmHg 66%
11:00 +18°C° 0.5 mm 1 mps 543 mmHg 69%
12:00 +18°C° 0.5 mm 1 mps 542 mmHg 73%
13:00 +18°C° 0.5 mm 1 mps 541 mmHg 77%
14:00 +16°C° 1.1 mm 1 mps 541 mmHg 80%
15:00 +16°C° 1.1 mm 1 mps 540 mmHg 82%
16:00 +15°C° 1.1 mm 1 mps 539 mmHg 85%
17:00 +14°C° 0.8 mm 1 mps 539 mmHg 89%
18:00 +12°C° 0.8 mm 1 mps 539 mmHg 93%
19:00 +11°C° 0.8 mm 1 mps 538 mmHg 97%
20:00 +11°C° 0.7 mm 1 mps 539 mmHg 97%
21:00 +10°C° 0.7 mm 0 mps 539 mmHg 97%
22:00 +10°C° 0.7 mm 0 mps 539 mmHg 97%
23:00 +9°C° 0.2 mm 0 mps 539 mmHg 97%

1 December, Tuesday

Time Temperature Precipitation Wind Pressure Humidity
00:00 +9°C° 0.2 mm 0 mps 539 mmHg 97%
01:00 +9°C° 0.2 mm 0 mps 539 mmHg 96%
02:00 +9°C° 0 mm 0 mps 538 mmHg 96%
03:00 +10°C° 0 mm 1 mps 538 mmHg 95%
04:00 +9°C° 0 mm 1 mps 538 mmHg 95%
05:00 +10°C° 0.1 mm 1 mps 539 mmHg 94%
06:00 +10°C° 0.1 mm 1 mps 539 mmHg 93%
07:00 +11°C° 0.1 mm 1 mps 540 mmHg 92%
08:00 +13°C° 0.1 mm 1 mps 541 mmHg 86%
09:00 +15°C° 0.1 mm 1 mps 542 mmHg 79%
10:00 +18°C° 0.1 mm 1 mps 544 mmHg 72%
11:00 +18°C° 1.1 mm 1 mps 543 mmHg 77%
12:00 +16°C° 1.1 mm 1 mps 541 mmHg 82%
13:00 +16°C° 1.1 mm 1 mps 540 mmHg 86%
14:00 +15°C° 1.3 mm 1 mps 540 mmHg 87%
15:00 +15°C° 1.3 mm 1 mps 539 mmHg 89%
16:00 +13°C° 1.3 mm 0 mps 539 mmHg 90%
17:00 +12°C° 1.1 mm 0 mps 539 mmHg 92%
18:00 +11°C° 1.1 mm 0 mps 539 mmHg 94%
19:00 +10°C° 1.1 mm 0 mps 538 mmHg 96%
20:00 +10°C° 0.4 mm 0 mps 539 mmHg 96%
21:00 +10°C° 0.4 mm 0 mps 539 mmHg 96%
22:00 +9°C° 0.4 mm 0 mps 539 mmHg 96%
23:00 +9°C° 0.1 mm 0 mps 539 mmHg 96%

2 December, Wednesday

Time Temperature Precipitation Wind Pressure Humidity
00:00 +9°C° 0.1 mm 0 mps 538 mmHg 96%
01:00 +8°C° 0.1 mm 0 mps 538 mmHg 96%
02:00 +8°C° 0 mm 0 mps 538 mmHg 96%
03:00 +8°C° 0 mm 0 mps 538 mmHg 96%
04:00 +8°C° 0 mm 0 mps 537 mmHg 96%
05:00 +8°C° 0 mm 0 mps 538 mmHg 95%
06:00 +9°C° 0 mm 0 mps 539 mmHg 94%
07:00 +11°C° 0 mm 1 mps 540 mmHg 93%
08:00 +13°C° 0.1 mm 1 mps 541 mmHg 85%
09:00 +15°C° 0.1 mm 1 mps 543 mmHg 78%
10:00 +18°C° 0.1 mm 1 mps 544 mmHg 71%
11:00 +18°C° 0.6 mm 1 mps 543 mmHg 75%
12:00 +16°C° 0.6 mm 1 mps 542 mmHg 79%
13:00 +16°C° 0.6 mm 1 mps 542 mmHg 83%
14:00 +15°C° 0.9 mm 1 mps 541 mmHg 86%
15:00 +14°C° 0.9 mm 1 mps 540 mmHg 89%
16:00 +13°C° 0.9 mm 1 mps 539 mmHg 92%
17:00 +13°C° 0.8 mm 1 mps 539 mmHg 94%
18:00 +11°C° 0.8 mm 0 mps 539 mmHg 95%
19:00 +10°C° 0.8 mm 0 mps 539 mmHg 97%
20:00 +9°C° 0.7 mm 0 mps 539 mmHg 97%
21:00 +9°C° 0.7 mm 0 mps 540 mmHg 97%
22:00 +9°C° 0.7 mm 0 mps 540 mmHg 97%
23:00 +9°C° 0.1 mm 0 mps 539 mmHg 96%

3 December, Thursday

Time Temperature Precipitation Wind Pressure Humidity
00:00 +8°C° 0.1 mm 0 mps 539 mmHg 96%
01:00 +8°C° 0.1 mm 0 mps 538 mmHg 95%
02:00 +8°C° 0 mm 0 mps 538 mmHg 95%
03:00 +7°C° 0 mm 0 mps 538 mmHg 95%
04:00 +7°C° 0 mm 0 mps 537 mmHg 95%
05:00 +8°C° 0 mm 0 mps 538 mmHg 93%
06:00 +8°C° 0 mm 0 mps 539 mmHg 92%
07:00 +9°C° 0 mm 0 mps 540 mmHg 91%
08:00 +13°C° 0 mm 1 mps 541 mmHg 80%
09:00 +15°C° 0 mm 1 mps 543 mmHg 70%
10:00 +19°C° 0 mm 1 mps 544 mmHg 60%
11:00 +19°C° 0.3 mm 1 mps 543 mmHg 62%
12:00 +19°C° 0.3 mm 1 mps 543 mmHg 64%
13:00 +19°C° 0.3 mm 1 mps 542 mmHg 66%
14:00 +18°C° 0.9 mm 1 mps 541 mmHg 73%
15:00 +16°C° 0.9 mm 1 mps 540 mmHg 80%
16:00 +15°C° 0.9 mm 1 mps 539 mmHg 88%
17:00 +14°C° 0.6 mm 1 mps 539 mmHg 91%
18:00 +11°C° 0.6 mm 0 mps 539 mmHg 94%
19:00 +10°C° 0.6 mm 0 mps 539 mmHg 97%
20:00 +10°C° 0.2 mm 0 mps 539 mmHg 97%
21:00 +10°C° 0.2 mm 0 mps 539 mmHg 97%
22:00 +9°C° 0.2 mm 0 mps 540 mmHg 97%
23:00 +9°C° 0.1 mm 0 mps 540 mmHg 97%
Show more

We Need Your Consent

Meteoprog and our Service Providers may store and access personal data such as cookies, device identifiers or other similar technologies on your device and process such data to personalise content and ads, as well as provide social media features and to analyse the traffic.

  • Store and/or access information on your device

    Cookies, device identifiers or other information can be stored or accessed on your device for the purposes indicated above.

  • Personalised ads and content, ad and content measurement, audience insights, and products development

    Ads and content can be personalised based on a profile. More data can be added to better personalise ads and content. Ad and content performance can be measured. Insights about the audience who saw the ads and content can be derived. Such data can be used to develop or improve user’s experience, systems and software.

By clicking ‘I Agree’ you will allow the use of indicated cookies, device identifiers, web beacons or other similar technologies. Your settings can be changed in the browser on your device.

For certain purposes, legitimate interests may be relied on, rather than consent. You can read more about this in our Privacy and Cookie Policy.